• In Netherlands
  • List of Countries
  • For 7 days
  • Water Temperature
  • Satellite Maps
  • Weather Map
  • Weather Widgets
  • user-avatar
    Login

    Hourly Weather Córdoba

    Today, 24 May, Wednesday

    Time Temperature Precipitation Wind Pressure Humidity
    00:00 +15°C° 0 mm 1 mps 722 mmHg 82%
    01:00 +14°C° 0 mm 1 mps 721 mmHg 83%
    02:00 +14°C° 0 mm 1 mps 721 mmHg 84%
    03:00 +14°C° 0 mm 1 mps 721 mmHg 85%
    04:00 +13°C° 0 mm 1 mps 721 mmHg 86%
    05:00 +13°C° 0 mm 1 mps 721 mmHg 86%
    06:00 +13°C° 0 mm 1 mps 721 mmHg 86%
    07:00 +14°C° 0 mm 1 mps 722 mmHg 86%
    08:00 +14°C° 0 mm 1 mps 722 mmHg 86%
    09:00 +15°C° 0 mm 2 mps 722 mmHg 79%
    10:00 +17°C° 0 mm 2 mps 723 mmHg 72%
    11:00 +19°C° 0 mm 2 mps 723 mmHg 65%
    12:00 +19°C° 0 mm 2 mps 722 mmHg 64%
    13:00 +20°C° 0 mm 2 mps 722 mmHg 63%
    14:00 +20°C° 0 mm 2 mps 722 mmHg 62%
    15:00 +20°C° 0 mm 3 mps 721 mmHg 66%
    16:00 +19°C° 0 mm 3 mps 721 mmHg 69%
    17:00 +19°C° 0 mm 3 mps 721 mmHg 73%
    18:00 +18°C° 0.1 mm 3 mps 722 mmHg 76%
    19:00 +17°C° 0.1 mm 3 mps 722 mmHg 78%
    20:00 +17°C° 0.1 mm 2 mps 722 mmHg 81%
    21:00 +16°C° 0.1 mm 3 mps 722 mmHg 82%
    22:00 +16°C° 0.1 mm 3 mps 722 mmHg 83%
    23:00 +16°C° 0.1 mm 3 mps 723 mmHg 84%

    Tomorrow, 25 May, Thursday

    Time Temperature Precipitation Wind Pressure Humidity
    00:00 +14°C° 0 mm 3 mps 722 mmHg 86%
    01:00 +14°C° 0 mm 3 mps 722 mmHg 87%
    02:00 +15°C° 0 mm 2 mps 722 mmHg 88%
    03:00 +14°C° 0 mm 2 mps 722 mmHg 89%
    04:00 +14°C° 0 mm 2 mps 721 mmHg 91%
    05:00 +13°C° 0 mm 2 mps 721 mmHg 92%
    06:00 +14°C° 0 mm 1 mps 721 mmHg 91%
    07:00 +14°C° 0 mm 1 mps 722 mmHg 91%
    08:00 +14°C° 0 mm 1 mps 722 mmHg 91%
    09:00 +15°C° 0.1 mm 1 mps 722 mmHg 84%
    10:00 +18°C° 0.1 mm 1 mps 723 mmHg 77%
    11:00 +18°C° 0.1 mm 2 mps 723 mmHg 70%
    12:00 +19°C° 0 mm 2 mps 723 mmHg 66%
    13:00 +20°C° 0 mm 2 mps 722 mmHg 62%
    14:00 +21°C° 0 mm 2 mps 722 mmHg 58%
    15:00 +20°C° 0 mm 2 mps 722 mmHg 61%
    16:00 +19°C° 0 mm 2 mps 722 mmHg 64%
    17:00 +19°C° 0 mm 2 mps 722 mmHg 68%
    18:00 +18°C° 0 mm 3 mps 723 mmHg 73%
    19:00 +17°C° 0 mm 3 mps 723 mmHg 79%
    20:00 +16°C° 0 mm 3 mps 724 mmHg 85%
    21:00 +14°C° 0 mm 3 mps 725 mmHg 86%
    22:00 +14°C° 0 mm 4 mps 725 mmHg 86%
    23:00 +14°C° 0 mm 4 mps 726 mmHg 86%

    Day after tomorrow, 26 May, Friday

    Time Temperature Precipitation Wind Pressure Humidity
    00:00 +13°C° 0 mm 4 mps 726 mmHg 87%
    01:00 +13°C° 0 mm 4 mps 726 mmHg 88%
    02:00 +12°C° 0 mm 4 mps 726 mmHg 88%
    03:00 +11°C° 0 mm 4 mps 726 mmHg 88%
    04:00 +11°C° 0 mm 4 mps 726 mmHg 87%
    05:00 +10°C° 0 mm 4 mps 726 mmHg 87%
    06:00 +10°C° 0 mm 4 mps 727 mmHg 85%
    07:00 +10°C° 0 mm 4 mps 727 mmHg 84%
    08:00 +10°C° 0 mm 4 mps 728 mmHg 83%
    09:00 +10°C° 0 mm 5 mps 729 mmHg 76%
    10:00 +12°C° 0 mm 5 mps 729 mmHg 68%
    11:00 +13°C° 0 mm 6 mps 730 mmHg 61%
    12:00 +14°C° 0 mm 5 mps 729 mmHg 58%
    13:00 +15°C° 0 mm 5 mps 729 mmHg 54%
    14:00 +15°C° 0 mm 5 mps 729 mmHg 51%
    15:00 +15°C° 0 mm 5 mps 729 mmHg 53%
    16:00 +14°C° 0 mm 4 mps 728 mmHg 54%
    17:00 +13°C° 0 mm 4 mps 728 mmHg 56%
    18:00 +12°C° 0 mm 4 mps 729 mmHg 60%
    19:00 +12°C° 0 mm 3 mps 730 mmHg 63%
    20:00 +11°C° 0 mm 3 mps 730 mmHg 67%
    21:00 +10°C° 0 mm 3 mps 730 mmHg 68%
    22:00 +10°C° 0 mm 3 mps 731 mmHg 69%
    23:00 +10°C° 0 mm 3 mps 731 mmHg 70%

    27 May, Saturday

    Time Temperature Precipitation Wind Pressure Humidity
    00:00 +10°C° 0 mm 3 mps 731 mmHg 71%
    01:00 +9°C° 0 mm 3 mps 731 mmHg 73%
    02:00 +9°C° 0 mm 3 mps 731 mmHg 74%
    03:00 +9°C° 0 mm 3 mps 730 mmHg 76%
    04:00 +8°C° 0 mm 2 mps 730 mmHg 78%
    05:00 +8°C° 0 mm 2 mps 730 mmHg 80%
    06:00 +8°C° 0 mm 2 mps 730 mmHg 79%
    07:00 +8°C° 0 mm 2 mps 730 mmHg 79%
    08:00 +8°C° 0 mm 2 mps 730 mmHg 79%
    09:00 +10°C° 0 mm 2 mps 731 mmHg 73%
    10:00 +13°C° 0 mm 2 mps 731 mmHg 68%
    11:00 +14°C° 0 mm 2 mps 731 mmHg 62%
    12:00 +15°C° 0 mm 2 mps 730 mmHg 60%
    13:00 +16°C° 0 mm 2 mps 729 mmHg 57%
    14:00 +16°C° 0 mm 2 mps 729 mmHg 55%
    15:00 +15°C° 0 mm 2 mps 728 mmHg 59%
    16:00 +15°C° 0 mm 2 mps 728 mmHg 62%
    17:00 +14°C° 0 mm 2 mps 728 mmHg 66%
    18:00 +13°C° 0 mm 2 mps 728 mmHg 72%
    19:00 +12°C° 0 mm 2 mps 728 mmHg 77%
    20:00 +10°C° 0 mm 2 mps 728 mmHg 82%
    21:00 +11°C° 0 mm 1 mps 728 mmHg 84%
    22:00 +10°C° 0 mm 1 mps 728 mmHg 85%
    23:00 +10°C° 0 mm 1 mps 728 mmHg 87%

    28 May, Sunday

    Time Temperature Precipitation Wind Pressure Humidity
    00:00 +9°C° 0 mm 1 mps 728 mmHg 88%
    01:00 +9°C° 0 mm 1 mps 728 mmHg 90%
    02:00 +9°C° 0 mm 1 mps 727 mmHg 91%
    03:00 +8°C° 0 mm 1 mps 727 mmHg 92%
    04:00 +7°C° 0 mm 0 mps 727 mmHg 93%
    05:00 +7°C° 0 mm 0 mps 727 mmHg 93%
    06:00 +7°C° 0 mm 0 mps 727 mmHg 93%
    07:00 +8°C° 0 mm 0 mps 727 mmHg 92%
    08:00 +9°C° 0 mm 0 mps 727 mmHg 91%
    09:00 +12°C° 0 mm 1 mps 727 mmHg 82%
    10:00 +14°C° 0 mm 1 mps 727 mmHg 73%
    11:00 +15°C° 0 mm 1 mps 727 mmHg 63%
    12:00 +16°C° 0 mm 1 mps 727 mmHg 60%
    13:00 +17°C° 0 mm 2 mps 726 mmHg 56%
    14:00 +18°C° 0 mm 2 mps 725 mmHg 53%
    15:00 +17°C° 0 mm 2 mps 725 mmHg 58%
    16:00 +16°C° 0 mm 2 mps 725 mmHg 62%
    17:00 +15°C° 0 mm 2 mps 725 mmHg 67%
    18:00 +14°C° 0 mm 2 mps 725 mmHg 74%
    19:00 +13°C° 0 mm 1 mps 726 mmHg 80%
    20:00 +12°C° 0 mm 1 mps 726 mmHg 87%
    21:00 +11°C° 0 mm 1 mps 726 mmHg 88%
    22:00 +11°C° 0 mm 1 mps 726 mmHg 89%
    23:00 +11°C° 0 mm 1 mps 727 mmHg 90%

    29 May, Monday

    Time Temperature Precipitation Wind Pressure Humidity
    00:00 +10°C° 0 mm 0 mps 726 mmHg 91%
    01:00 +9°C° 0 mm 0 mps 726 mmHg 92%
    02:00 +9°C° 0 mm 0 mps 726 mmHg 93%
    03:00 +9°C° 0 mm 0 mps 726 mmHg 93%
    04:00 +8°C° 0 mm 0 mps 726 mmHg 93%
    05:00 +9°C° 0 mm 1 mps 726 mmHg 93%
    06:00 +10°C° 0 mm 1 mps 727 mmHg 91%
    07:00 +10°C° 0 mm 1 mps 728 mmHg 89%
    08:00 +11°C° 0 mm 1 mps 729 mmHg 86%
    09:00 +13°C° 0 mm 2 mps 729 mmHg 76%
    10:00 +15°C° 0 mm 2 mps 729 mmHg 66%
    11:00 +17°C° 0 mm 3 mps 730 mmHg 55%
    12:00 +18°C° 0 mm 3 mps 729 mmHg 50%
    13:00 +19°C° 0 mm 3 mps 729 mmHg 46%
    14:00 +20°C° 0 mm 3 mps 729 mmHg 41%
    15:00 +19°C° 0 mm 3 mps 729 mmHg 45%
    16:00 +17°C° 0 mm 3 mps 729 mmHg 49%
    17:00 +16°C° 0 mm 3 mps 729 mmHg 52%
    18:00 +14°C° 0 mm 3 mps 729 mmHg 59%
    19:00 +13°C° 0 mm 3 mps 730 mmHg 66%
    20:00 +12°C° 0 mm 2 mps 730 mmHg 72%
    21:00 +12°C° 0 mm 2 mps 731 mmHg 74%
    22:00 +10°C° 0 mm 2 mps 731 mmHg 76%
    23:00 +9°C° 0 mm 2 mps 731 mmHg 78%
    Show more